[[{"header":{"parameterUnit":"m.s-1","parameterCategory":1,"la1":30.2991,"la2":30.254,"lo1":-89.0895,"lo2":-89.0444,"dy":0.0017,"dx":0.0017,"nx":28,"ny":28,"refTime":"2025-06-15T09:00:00:Z","depth":0,"parameterNumber":2,"parameterNumberName":"U-component_of_WINDS"},"data":[0,0,0,0,0,0,0,0,0,0,0,0,0,0,0,0,0,0,0,0,0,0,0,0,0,0,0,0,0,0,0,0,0,0,0,0,0,0,0,0,0,0,0,0,0,0,0,0,0,0,0,0,0,0,0,0,0,0,0.5495,0.5496,0,0.5589,0.559,0.5591,0.5623,0.5623,0.5623,0.5622,0.5717,0.572,0.5723,0,0,0,0,0,0,0,0,0,0,0,0,0,0.5341,0.5343,0.5495,0.5496,0.5497,0.5589,0.559,0.5591,0.5623,0.5623,0.5623,0.5622,0.5716,0.572,0.5723,0,0,0,0,0,0,0,0,0,0,0,0,0,0.5418,0.5344,0.5495,0.5524,0.5528,0.5588,0.559,0.5592,0.5624,0.5623,0.5622,0.5622,0.5715,0.5719,0.5723,0.5761,0,0,0.5737,0.5738,0,0,0,0,0,0,0,0,0.5414,0.5424,0.5519,0.5522,0.5527,0.5594,0.5571,0.5648,0.5624,0.5587,0.5622,0.5622,0.5676,0.5684,0.5703,0.5765,0.5769,0.5737,0.574,0.5741,0.5743,0,0,0,0,0,0,0,0.5409,0.542,0.5532,0.552,0.5525,0.5532,0.5543,0.5585,0.5634,0.559,0.5593,0.5604,0.5678,0.5698,0.5705,0.5771,0.5737,0.5741,0.5743,0.5745,0.5868,0.5868,0,0,0,0,0,0,0.5399,0.5416,0.5529,0.5535,0.5468,0.5535,0.5547,0.5573,0.5633,0.5642,0.5604,0.5605,0.5691,0.57,0.5709,0.5756,0.5741,0.5745,0.5748,0.5867,0.5868,0.5868,0,0,0,0,0,0,0.5395,0.5408,0.5525,0.5476,0.5491,0.5539,0.5567,0.5575,0.5595,0.5644,0.5652,0.5616,0.5691,0.5703,0.5747,0.576,0.5747,0.5751,0.5866,0.5867,0.5868,0.5851,0,0,0,0,0,0,0.5391,0.5407,0.5422,0.5476,0.5494,0.5563,0.5568,0.5577,0.5602,0.5604,0.5657,0.5665,0.5692,0.5741,0.5752,0.5765,0.5755,0.5865,0.5867,0.5868,0.585,0.5851,0.5851,0,0,0,0,0,0.5385,0.5413,0.5423,0.5436,0.5514,0.5564,0.5574,0.5604,0.5603,0.5619,0.565,0.5663,0.5756,0.5745,0.5758,0.5773,0.5865,0.5866,0.5868,0.585,0.5851,0.5851,0,0,0,0,0,0,0.536,0.5421,0.5432,0.5479,0.5516,0.5569,0.559,0.5604,0.5642,0.5642,0.5678,0.5689,0.5731,0.5757,0.5743,0.5811,0.5811,0.5815,0.5793,0.5795,0.5795,0.5788,0.5758,0,0,0,0,0,0.5359,0.5395,0.5447,0.5483,0.5501,0.5542,0.5565,0.5585,0.5625,0.564,0.5675,0.5712,0.5749,0.5773,0.5811,0.5854,0.5865,0.587,0.5871,0.5871,0.5874,0.5898,0.59,0.5873,0.5873,0.5873,0,0,0.536,0.5398,0.5418,0.5479,0.551,0.5546,0.5555,0.5592,0.5619,0.5646,0.569,0.5717,0.576,0.5804,0.5826,0.5827,0.5884,0.5873,0.5873,0.5876,0.59,0.5902,0.5904,0.5875,0.5874,0.5874,0,0,0.5378,0.5411,0.5444,0.5475,0.5522,0.5549,0.5556,0.5607,0.5626,0.5671,0.5692,0.5723,0.5787,0.5818,0.5841,0.587,0.5883,0.5881,0.5883,0.5906,0.5908,0.591,0.592,0.5923,0.5884,0.5884,0.5884,0,0.5372,0.5427,0.5459,0.5496,0.5521,0.5547,0.5581,0.5609,0.5665,0.5682,0.5683,0.5763,0.5795,0.5845,0.5852,0.5871,0.588,0.5875,0.5906,0.5908,0.591,0.592,0.5923,0.5883,0.5883,0.5883,0.5883,0,0.5417,0.5455,0.5476,0.553,0.5558,0.5593,0.563,0.5654,0.5671,0.5698,0.5743,0.5781,0.5826,0.584,0.5857,0.5893,0.5892,0.5899,0.5899,0.5912,0.5921,0.5925,0.5882,0.5882,0.5882,0.5883,0,0,0.5423,0.5494,0.5501,0.5525,0.5578,0.5608,0.5643,0.5687,0.5707,0.5745,0.5775,0.5828,0.5834,0.586,0.5881,0.5901,0.592,0.5905,0.5907,0.5906,0.5961,0.5956,0.596,0.593,0.5931,0.5931,0.5957,0,0.5448,0.5513,0.5542,0.5594,0.5628,0.5653,0.5683,0.5719,0.5744,0.5776,0.5804,0.5841,0.5847,0.5863,0.5884,0.5914,0.5932,0.5912,0.5957,0.5958,0.5945,0.5965,0.5959,0.5982,0.5961,0.5962,0.5962,0,0.5486,0.5523,0.5578,0.5626,0.5642,0.5669,0.5711,0.5742,0.5782,0.5799,0.5829,0.5849,0.5886,0.5883,0.5934,0.592,0.594,0.5958,0.5959,0.5964,0.5961,0.597,0.599,0.5994,0.5969,0.5968,0.5968,0,0.5483,0.5548,0.5589,0.5609,0.5666,0.5685,0.5709,0.5749,0.5773,0.581,0.5826,0.5866,0.5888,0.5919,0.5949,0.5944,0.5997,0.5997,0.6011,0.601,0.6021,0.602,0.6044,0.6034,0.6034,0.6034,0.6034,0,0.5508,0.554,0.5589,0.5614,0.565,0.5684,0.5719,0.5745,0.578,0.581,0.5833,0.5861,0.5898,0.593,0.5954,0.5992,0.6002,0.6016,0.6022,0.6014,0.6012,0.6028,0.6027,0.6035,0.6035,0.6035,0.6034,0,0.5512,0.5546,0.5592,0.5642,0.5655,0.568,0.5723,0.5747,0.5773,0.5811,0.5822,0.5863,0.5901,0.5934,0.5985,0.6001,0.604,0.6047,0.6027,0.603,0.6042,0.604,0.6077,0.6083,0.6069,0.6069,0.6069,0,0.5525,0.5551,0.5604,0.5626,0.565,0.5685,0.571,0.5743,0.5768,0.5815,0.5834,0.5874,0.5909,0.5969,0.6003,0.6042,0.605,0.606,0.6056,0.6047,0.6049,0.6047,0.605,0.606,0.606,0.606,0.606,0,0.5545,0.556,0.5596,0.5637,0.5666,0.57,0.5734,0.5751,0.579,0.5817,0.5857,0.5883,0.5935,0.5975,0.6017,0.6041,0.6057,0.6061,0.6066,0.6058,0.6045,0.6052,0.6027,0.606,0.606,0.606,0.606,0.606,0.5554,0.5578,0.5618,0.5657,0.5686,0.5717,0.5743,0.5772,0.5806,0.5851,0.5869,0.5909,0.5948,0.6006,0.603,0.6062,0.6064,0.6072,0.6074,0.6075,0.6074,0.604,0.607,0.607,0.607,0.607,0.607,0,0.5575,0.5602,0.5637,0.5684,0.5714,0.5727,0.5765,0.5789,0.5825,0.5859,0.5892,0.5938,0.5976,0.6013,0.6053,0.6071,0.6079,0.608,0.6079,0.6084,0.607,0.6061,0.6073,0.6073,0.6073,0.6073,0.6073,0.6073,0.5589,0.5629,0.5649,0.5704,0.5731,0.5771,0.5792,0.582,0.5848,0.5898,0.593,0.5954,0.5989,0.6031,0.6067,0.6076,0.609,0.6089,0.61,0.6086,0.6085,0.6085,0.6077,0.6092,0.6092,0.6112,0.6112,0.6112]},{"header":{"parameterUnit":"m.s-1","parameterCategory":1,"la1":30.2991,"la2":30.254,"lo1":-89.0895,"lo2":-89.0444,"dy":0.0017,"dx":0.0017,"nx":28,"ny":28,"refTime":"2025-06-15T09:00:00:Z","depth":0,"parameterNumber":3,"parameterNumberName":"V-component_of_WINDS"},"data":[0,0,0,0,0,0,0,0,0,0,0,0,0,0,0,0,0,0,0,0,0,0,0,0,0,0,0,0,0,0,0,0,0,0,0,0,0,0,0,0,0,0,0,0,0,0,0,0,0,0,0,0,0,0,0,0,0,0,5.4096,5.4096,0,5.4181,5.4182,5.4183,5.4104,5.4101,5.4098,5.4095,5.4177,5.4181,5.4187,0,0,0,0,0,0,0,0,0,0,0,0,0,5.3856,5.386,5.4095,5.4097,5.4098,5.4181,5.4182,5.4183,5.4105,5.4101,5.4097,5.4094,5.4175,5.4181,5.4187,0,0,0,0,0,0,0,0,0,0,0,0,0,5.3952,5.3862,5.4095,5.4069,5.4067,5.4181,5.4182,5.4184,5.4106,5.4101,5.4096,5.4092,5.4173,5.418,5.4188,5.433,0,0,5.4211,5.4215,0,0,0,0,0,0,0,0,5.3947,5.3961,5.4072,5.4071,5.4069,5.4127,5.4127,5.4233,5.4107,5.4091,5.4095,5.409,5.4164,5.4172,5.4198,5.4334,5.4338,5.4212,5.4217,5.422,5.4222,0,0,0,0,0,0,0,5.394,5.3957,5.4129,5.4073,5.4072,5.405,5.4058,5.4147,5.4153,5.4092,5.4087,5.4098,5.4162,5.4191,5.4199,5.4339,5.4212,5.4219,5.4223,5.4226,5.4593,5.4598,0,0,0,0,0,0,5.3937,5.3952,5.4126,5.4132,5.3995,5.4058,5.4068,5.4113,5.4152,5.4153,5.4102,5.4094,5.418,5.419,5.4202,5.437,5.422,5.4227,5.4231,5.4588,5.4594,5.46,0,0,0,0,0,0,5.3933,5.3954,5.4123,5.404,5.406,5.4067,5.4119,5.4118,5.4146,5.4159,5.4159,5.4131,5.4177,5.4191,5.4299,5.4371,5.4231,5.4237,5.4582,5.459,5.4597,5.4707,0,0,0,0,0,0,5.3926,5.3953,5.4009,5.4042,5.4065,5.4221,5.4124,5.4123,5.4161,5.4151,5.4186,5.4188,5.4174,5.4288,5.4306,5.4379,5.4243,5.4575,5.4585,5.4595,5.4697,5.4718,5.4736,0,0,0,0,0,5.3918,5.4035,5.4012,5.4034,5.4136,5.4226,5.4238,5.4222,5.4167,5.4222,5.423,5.4186,5.4361,5.43,5.432,5.4396,5.4571,5.4583,5.4594,5.4689,5.4714,5.4735,0,0,0,0,0,0,5.4008,5.4039,5.4014,5.4146,5.4184,5.4212,5.4281,5.425,5.4302,5.4291,5.4267,5.4275,5.4389,5.4403,5.4335,5.4535,5.4456,5.4472,5.4521,5.4546,5.4564,5.4558,5.425,0,0,0,0,0,5.4044,5.4117,5.4139,5.4253,5.4274,5.4275,5.4313,5.4298,5.4335,5.435,5.4365,5.4401,5.4464,5.4505,5.4564,5.4699,5.4704,5.4761,5.478,5.4796,5.481,5.488,5.4905,5.4638,5.4638,5.4637,0,0,5.4117,5.4144,5.4191,5.4272,5.43,5.4373,5.4289,5.437,5.4423,5.4361,5.4464,5.4477,5.4515,5.4637,5.4691,5.4652,5.4885,5.4811,5.4823,5.4829,5.4895,5.492,5.4943,5.4646,5.4644,5.4643,0,0,5.4289,5.4317,5.4415,5.4445,5.4488,5.4487,5.4511,5.4544,5.4551,5.4654,5.4609,5.467,5.4779,5.4808,5.4836,5.5018,5.4979,5.5037,5.5137,5.5206,5.5227,5.5245,5.5309,5.5332,5.5051,5.5051,5.5052,0,5.4375,5.4486,5.4469,5.4554,5.459,5.4539,5.4636,5.4665,5.4724,5.4749,5.4705,5.484,5.4862,5.4989,5.5033,5.5058,5.5082,5.5033,5.5226,5.5244,5.5261,5.5321,5.5345,5.5058,5.5057,5.5057,5.5056,0,5.4588,5.4665,5.4739,5.48,5.4844,5.4934,5.4928,5.4975,5.4955,5.4958,5.5063,5.5088,5.5149,5.5178,5.5159,5.5302,5.5276,5.523,5.515,5.5294,5.5349,5.5372,5.5068,5.5065,5.5063,5.5062,0,0,5.4819,5.4869,5.4896,5.4922,5.4966,5.5024,5.5111,5.5173,5.5213,5.5255,5.5325,5.5418,5.5375,5.5408,5.5391,5.5452,5.5592,5.5397,5.5398,5.5431,5.5748,5.5783,5.581,5.5567,5.5571,5.5574,5.5745,0,5.4991,5.5145,5.5132,5.5277,5.5346,5.5299,5.5374,5.5407,5.5412,5.547,5.5474,5.554,5.5479,5.5498,5.5556,5.5563,5.5655,5.555,5.563,5.5633,5.5621,5.5839,5.5876,5.6036,5.5766,5.577,5.5773,0,5.5213,5.5265,5.5418,5.5449,5.5478,5.5546,5.5601,5.5658,5.5694,5.5693,5.573,5.5702,5.5787,5.5706,5.5821,5.575,5.5781,5.5789,5.5795,5.5801,5.5711,5.585,5.6086,5.611,5.5807,5.5805,5.5802,0,5.5365,5.5472,5.5577,5.5601,5.5641,5.569,5.5708,5.574,5.5777,5.5825,5.5848,5.5904,5.5935,5.5977,5.5965,5.5908,5.6082,5.6,5.6081,5.6082,5.6119,5.6117,5.6363,5.6142,5.6141,5.6141,5.614,0,5.5558,5.5653,5.5646,5.571,5.5814,5.5796,5.5898,5.591,5.5938,5.6002,5.5963,5.6023,5.6003,5.6061,5.6052,5.6147,5.6161,5.6161,5.6157,5.6164,5.6164,5.6184,5.6172,5.6147,5.6146,5.6145,5.6144,0,5.5745,5.5744,5.5855,5.5884,5.5893,5.5968,5.5992,5.6051,5.6053,5.6133,5.6151,5.6153,5.622,5.6212,5.6285,5.6279,5.6397,5.638,5.6386,5.6382,5.6462,5.6455,5.6729,5.6763,5.6521,5.6523,5.6525,0,5.5868,5.594,5.5977,5.6018,5.604,5.6107,5.6145,5.613,5.6171,5.6217,5.627,5.6333,5.6383,5.649,5.6497,5.6553,5.6536,5.6628,5.6544,5.6548,5.6536,5.6531,5.6537,5.6645,5.6647,5.665,5.6651,0,5.6086,5.6082,5.614,5.6199,5.6247,5.6292,5.6332,5.6367,5.6355,5.6403,5.6471,5.651,5.6586,5.6648,5.6701,5.6716,5.6682,5.6678,5.6699,5.6707,5.6707,5.6707,5.643,5.6672,5.667,5.6668,5.6667,5.6666,5.6243,5.6304,5.634,5.6406,5.6435,5.6474,5.6531,5.654,5.6598,5.6659,5.6646,5.6723,5.6754,5.6821,5.6842,5.69,5.6866,5.6897,5.6905,5.6913,5.6922,5.6699,5.691,5.6909,5.6908,5.6908,5.6908,0,5.6458,5.6479,5.654,5.6598,5.665,5.6615,5.6657,5.6701,5.677,5.6804,5.6854,5.6931,5.6992,5.7003,5.706,5.7104,5.7089,5.7119,5.7115,5.7119,5.695,5.6925,5.713,5.713,5.713,5.713,5.713,5.713,5.6576,5.6677,5.6677,5.6791,5.681,5.6887,5.6914,5.6948,5.6975,5.7064,5.7114,5.7122,5.7146,5.7204,5.7256,5.7258,5.728,5.7316,5.7311,5.7153,5.7131,5.711,5.7086,5.7321,5.7322,5.7475,5.7476,5.7478]}]]